TimeMDT,TemperatureF,Dew PointF,Humidity,Sea Level PressureIn,VisibilityMPH,Wind Direction,Wind SpeedMPH,Gust SpeedMPH,PrecipitationIn,Events,Conditions,WindDirDegrees,DateUTC
12:15 AM,-9999,-9999,N/A,30.11,10.0,North,9.2,-,N/A,,Overcast,350,2011-10-16 06:15:00
12:35 AM,-9999,-9999,N/A,30.11,10.0,North,6.9,-,N/A,,Overcast,350,2011-10-16 06:35:00
12:55 AM,-9999,-9999,N/A,30.12,10.0,NNW,6.9,-,N/A,,Overcast,340,2011-10-16 06:55:00
1:15 AM,-9999,-9999,N/A,30.12,10.0,North,6.9,-,N/A,,Overcast,360,2011-10-16 07:15:00
1:35 AM,-9999,-9999,N/A,30.12,10.0,North,8.1,-,N/A,,Overcast,360,2011-10-16 07:35:00
1:55 AM,-9999,-9999,N/A,30.13,10.0,NNW,9.2,-,N/A,,Overcast,330,2011-10-16 07:55:00
2:15 AM,-9999,-9999,N/A,30.12,10.0,North,6.9,-,N/A,,Overcast,350,2011-10-16 08:15:00
2:55 AM,-9999,-9999,N/A,30.12,10.0,NNW,6.9,-,N/A,,Overcast,340,2011-10-16 08:55:00
3:15 AM,-9999,-9999,N/A,30.12,10.0,North,4.6,-,N/A,,Overcast,350,2011-10-16 09:15:00
3:35 AM,-9999,-9999,N/A,30.11,10.0,NNW,3.5,-,N/A,,Overcast,340,2011-10-16 09:35:00
3:55 AM,-9999,-9999,N/A,30.11,10.0,Calm,Calm,-,N/A,,Overcast,0,2011-10-16 09:55:00
4:15 AM,-9999,-9999,N/A,30.11,10.0,Calm,Calm,-,N/A,,Overcast,0,2011-10-16 10:15:00
4:35 AM,-9999,-9999,N/A,30.11,10.0,North,5.8,-,N/A,,Overcast,10,2011-10-16 10:35:00
4:55 AM,-9999,-9999,N/A,30.12,10.0,North,4.6,-,N/A,,Overcast,10,2011-10-16 10:55:00
5:35 AM,-9999,-9999,N/A,30.11,10.0,NE,5.8,-,N/A,,Overcast,40,2011-10-16 11:35:00
5:55 AM,-9999,-9999,N/A,30.11,10.0,NNE,6.9,-,N/A,,Overcast,20,2011-10-16 11:55:00
6:15 AM,-9999,-9999,N/A,30.12,10.0,North,4.6,-,N/A,,Overcast,350,2011-10-16 12:15:00
6:35 AM,-9999,-9999,N/A,30.11,10.0,NNE,3.5,-,N/A,,Overcast,20,2011-10-16 12:35:00
6:55 AM,-9999,-9999,N/A,30.11,10.0,Calm,Calm,-,N/A,,Overcast,0,2011-10-16 12:55:00
7:15 AM,-9999,-9999,N/A,30.11,10.0,East,4.6,-,N/A,,Overcast,90,2011-10-16 13:15:00
7:35 AM,-9999,-9999,N/A,30.10,10.0,ESE,3.5,-,N/A,,Overcast,110,2011-10-16 13:35:00
7:55 AM,-9999,-9999,N/A,30.10,10.0,SE,4.6,-,N/A,,Overcast,130,2011-10-16 13:55:00
8:15 AM,-9999,-9999,N/A,30.09,10.0,East,8.1,-,N/A,,Overcast,100,2011-10-16 14:15:00
8:35 AM,-9999,-9999,N/A,30.09,10.0,ESE,5.8,-,N/A,,Overcast,110,2011-10-16 14:35:00
8:55 AM,-9999,-9999,N/A,30.09,10.0,ESE,5.8,-,N/A,,Overcast,110,2011-10-16 14:55:00
9:15 AM,-9999,-9999,N/A,30.09,10.0,South,5.8,-,N/A,,Mostly Cloudy,170,2011-10-16 15:15:00
9:35 AM,-9999,-9999,N/A,30.08,10.0,South,5.8,-,N/A,,Mostly Cloudy,170,2011-10-16 15:35:00
9:55 AM,46.4,30.2,53,30.09,10.0,SSE,4.6,-,N/A,,Partly Cloudy,160,2011-10-16 15:55:00
10:15 AM,48.2,32.0,54,30.09,10.0,SE,6.9,-,N/A,,Clear,140,2011-10-16 16:15:00
10:35 AM,48.2,33.8,58,30.08,10.0,ESE,5.8,-,N/A,,Clear,110,2011-10-16 16:35:00
10:55 AM,50.0,33.8,54,30.07,10.0,SSE,4.6,-,N/A,,Clear,160,2011-10-16 16:55:00
11:16 AM,-9999,-9999,N/A,30.05,10.0,ESE,8.1,-,N/A,,Clear,120,2011-10-16 17:16:00
11:35 AM,-9999,-9999,N/A,30.04,10.0,ESE,6.9,-,N/A,,Clear,120,2011-10-16 17:35:00
11:55 AM,-9999,-9999,N/A,30.02,10.0,SE,6.9,-,N/A,,Clear,140,2011-10-16 17:55:00
12:15 PM,-9999,-9999,N/A,30.01,10.0,ESE,12.7,-,N/A,,Clear,110,2011-10-16 18:15:00
12:35 PM,-9999,-9999,N/A,30.01,10.0,ESE,12.7,18.4,N/A,,Clear,120,2011-10-16 18:35:00
1:15 PM,57.2,35.6,44,29.99,10.0,ESE,10.4,-,N/A,,Clear,120,2011-10-16 19:15:00
1:35 PM,55.4,35.6,47,29.98,10.0,East,9.2,-,N/A,,Clear,100,2011-10-16 19:35:00
1:55 PM,55.4,35.6,47,29.98,10.0,East,8.1,-,N/A,,Clear,90,2011-10-16 19:55:00
2:15 PM,57.2,35.6,44,29.97,10.0,East,12.7,-,N/A,,Scattered Clouds,90,2011-10-16 20:15:00
2:35 PM,-9999,-9999,N/A,29.95,10.0,East,10.4,-,N/A,,Mostly Cloudy,80,2011-10-16 20:35:00
2:55 PM,-9999,-9999,N/A,29.95,10.0,East,8.1,-,N/A,,Overcast,90,2011-10-16 20:55:00
3:15 PM,-9999,-9999,N/A,29.96,10.0,NNE,6.9,-,N/A,,Overcast,20,2011-10-16 21:15:00
3:35 PM,-9999,-9999,N/A,29.98,10.0,West,9.2,-,0.01,,Overcast,280,2011-10-16 21:35:00
3:55 PM,-9999,-9999,N/A,30.00,8.0,WSW,8.1,-,0.09,,Overcast,250,2011-10-16 21:55:00
4:15 PM,-9999,-9999,N/A,29.97,7.0,SSE,8.1,-,0.06,,Overcast,150,2011-10-16 22:15:00
4:35 PM,-9999,-9999,N/A,29.96,10.0,South,8.1,-,0.06,,Mostly Cloudy,180,2011-10-16 22:35:00
4:55 PM,-9999,-9999,N/A,29.96,10.0,SE,6.9,-,0.06,,Mostly Cloudy,130,2011-10-16 22:55:00
5:15 PM,-9999,-9999,N/A,29.96,10.0,South,8.1,-,N/A,,Mostly Cloudy,180,2011-10-16 23:15:00
5:35 PM,-9999,-9999,N/A,29.96,10.0,SSW,15.0,23.0,N/A,,Overcast,200,2011-10-16 23:35:00
5:55 PM,-9999,-9999,N/A,29.94,10.0,South,17.3,-,N/A,,Overcast,170,2011-10-16 23:55:00
6:35 PM,-9999,-9999,N/A,29.93,10.0,South,13.8,21.9,N/A,,Overcast,180,2011-10-17 00:35:00
6:55 PM,-9999,-9999,N/A,29.95,10.0,SW,15.0,26.5,N/A,,Overcast,230,2011-10-17 00:55:00
7:15 PM,-9999,-9999,N/A,29.95,10.0,WSW,11.5,23.0,N/A,,Overcast,240,2011-10-17 01:15:00
7:35 PM,-9999,-9999,N/A,29.95,10.0,WSW,5.8,-,N/A,,Mostly Cloudy,250,2011-10-17 01:35:00
8:15 PM,-9999,-9999,N/A,29.97,10.0,WSW,5.8,-,N/A,,Clear,240,2011-10-17 02:15:00
8:35 PM,-9999,-9999,N/A,29.96,10.0,West,3.5,-,N/A,,Clear,280,2011-10-17 02:35:00
8:55 PM,-9999,-9999,N/A,29.96,10.0,NW,9.2,-,N/A,,Clear,320,2011-10-17 02:55:00
9:15 PM,-9999,-9999,N/A,29.96,10.0,North,4.6,-,N/A,,Clear,350,2011-10-17 03:15:00
9:35 PM,-9999,-9999,N/A,29.95,10.0,North,9.2,-,N/A,,Partly Cloudy,360,2011-10-17 03:35:00
9:55 PM,-9999,-9999,N/A,29.95,10.0,North,10.4,-,N/A,,Clear,360,2011-10-17 03:55:00
10:15 PM,-9999,-9999,N/A,29.95,10.0,North,6.9,-,N/A,,Partly Cloudy,10,2011-10-17 04:15:00
10:35 PM,-9999,-9999,N/A,29.96,10.0,NNW,3.5,-,N/A,,Mostly Cloudy,330,2011-10-17 04:35:00
11:15 PM,-9999,-9999,N/A,29.97,10.0,WNW,5.8,-,N/A,,Overcast,290,2011-10-17 05:15:00
11:35 PM,-9999,-9999,N/A,30.00,10.0,NW,16.1,24.2,N/A,,Overcast,320,2011-10-17 05:35:00
11:55 PM,-9999,-9999,N/A,30.02,10.0,NNW,12.7,-,N/A,,Overcast,330,2011-10-17 05:55:00